CZ-4 DEB, 35331

Orbit data source: Space-Track

CZ-4 DEB, 35331 is space debris in SSO originally from a launch on Thu, 14 Oct 1999 UTC launched from the Taiyaun Space Center, China (TSC). Debris objects in space refer to the collection of defunct objects orbiting the Earth. Examples of debris include non-operational satellites, rocket bodies, and fragments generated from explosions, collisions, or faulty payload assembly.

Loading next visibility...
Identifier
35331, 1999-057SK
Orbit
SSO
Country
Flag of CNCN / PRC
Related business
Manufacturer
Unknown
Mission
Spacecraft
Bus & Motor
Unknown
Mass
Unknown
Launch date (UTC)
1999-10-14 (26 years ago)
Launch vehicle
Unknown
Launch site
Taiyaun Space Center, China (TSC)
Object type
Payload
Rocket body
Debris
Shape & HBR
Unknown shape, 0.1 m
Radar Cross Section
Small (<0.1 m²)

Expand to show TLE details & history
Last TLE update: 16 hours ago

TLE from 16 hours ago
0 CZ-4 DEB
1 35331U 99057SK  25349.55282003  .00008446  00000-0  12230-2 0  9995
2 35331  98.5399  90.9796 0073732 174.5481 198.7158 14.74513166631144
Epoch: 2025-12-15T13:16Z
TLE epoch observation values (Epoch: 2025-12-15T13:16:03.650Z)
Latitude
12.81002°
Longitude
165.56848°
Altitude
698.04 km
Speed
7.482 km/s
True Right ascension
05h 56m 08s
True Declination
12° 44' 07"
Sunlit
Object was in full shadow at epoch
Visualization orbit readout
Latitude
Unknown
Longitude
Unknown
Altitude
Unknown
Speed
Unknown
Apparent Right ascension
Unknown
Apparent Declination
Unknown
Sunlit
N/A
Visualization observer readout
Local Sidereal Time
03:50:47
Azimuth
Unknown
Elevation
Unknown
Doppler factor
Unknown
Orbital elements
Apogee altitude
695.549 km
Perigee altitude
592.001 km
Semi-major axis
7,021.912 km
Eccentricity
0.00737
Inclination
98.5399°
RAAN
90.9796°
Arg. of periapsis
174.5481°
True anomaly
198.44704°
Mean anomaly
198.7158°
Eccentric anomaly
198.58119°
Mean motion
3.68859 °/min
Orbital period
97.6 mins
BSTAR
0.001223
Loading maneuver chart data...
Computing Atmospheric mass density...

Documentation

Showing up to 5 results
|